{"data":{"norad_id":53559,"intl_designator":"2022-101AJ","name":"STARLINK-4508","alt_names":[],"object_type":"PAYLOAD","status":"ACTIVE","operator":null,"country":"US","launch_date":"2022-08-19","launch_site_code":"AFETR","launch_vehicle":null,"mission":null,"orbit_class":"UNKNOWN","rcs_meters":null,"size_class":null,"mass_kg":null,"dimensions":null,"purposes":["comms"],"wikipedia_slug":null,"has_3d_model":false,"image_url":null,"decayed_at":null,"tle_current":{"epoch":"2026-05-25T02:35:34.823616Z","epoch_age_seconds":68954,"freshness":"FRESH","line1":"1 53559U 22101AJ  26145.10804194  .01272685  84242-3  26572-2 0  9996","line2":"2 53559  53.2182  66.2844 0000419  92.9375 267.1704 15.98613240208050","mean_motion":15.9861324,"eccentricity":4.19e-5,"inclination_deg":53.2182,"raan_deg":66.2844,"arg_perigee_deg":92.9375,"mean_anomaly_deg":267.1704,"bstar":0.0026572,"rev_number":20805,"period_min":90.07807291775,"perigee_km":277.98653414467,"apogee_km":278.54434066893,"semimajor_km":6656.4024374068,"source":"CELESTRAK","updated_at":"2026-05-25T13:38:17.446156Z"}}}